FW4235 Weather Reports


time (UTC)temp
C
wind
direction
speed
KPH
gust
KPH
rain 1hr
cm
rain 24hr
cm
rain mn
cm
humidity
%
barometer
mb
20260510091508 25 215 0.0 0.0 0.00 0.00 0.00 53 1014.6
20260510091007 25 210 0.0 0.0 0.00 0.00 0.00 54 1014.6
20260510090507 24 234 0.0 0.0 0.00 0.00 0.00 55 1014.7
20260510090008 24 214 0.0 0.0 0.00 0.00 0.00 54 1014.6
20260510085007 24 250 0.0 0.0 0.00 0.00 0.00 54 1014.7
20260510083508 23 257 0.0 0.0 0.00 0.00 0.00 56 1014.6
20260510082507 24 240 0.0 0.0 0.00 0.00 0.00 56 1014.6
20260510082008 24 235 0.0 0.0 0.00 0.00 0.00 55 1014.6
20260510081507 24 251 0.0 0.0 0.00 0.00 0.00 54 1014.7
20260510081008 24 210 0.0 0.0 0.00 0.00 0.00 54 1014.6
20260510080508 24 188 0.0 0.0 0.00 0.00 0.00 54 1014.6
20260510080008 23 177 0.0 0.0 0.00 0.00 0.00 55 1014.4
20260510075507 23 123 0.0 0.0 0.00 0.00 0.00 57 1014.3
20260510075008 23 46 0.0 0.0 0.00 0.00 0.00 57 1014.2
20260510074007 22 140 0.0 0.0 0.00 0.00 0.00 58 1014.1
20260510073507 22 113 0.0 0.0 0.00 0.00 0.00 58 1014.0
20260510073007 22 119 0.0 0.0 0.00 0.00 0.00 58 1014.0
20260510072007 22 142 0.0 0.0 0.00 0.00 0.00 58 1014.1
20260510071507 22 200 0.0 0.0 0.00 0.00 0.00 59 1014.2
20260510071007 22 165 0.0 0.0 0.00 0.00 0.00 58 1014.2
20260510070507 22 149 0.0 0.0 0.00 0.00 0.00 58 1014.1
20260510065507 21 83 0.0 0.0 0.00 0.00 0.00 60 1014.1
20260510064008 21 163 0.0 0.0 0.00 0.00 0.00 61 1014.0
20260510063508 21 150 0.0 0.0 0.00 0.00 0.00 62 1014.1
20260510063008 21 132 0.0 0.0 0.00 0.00 0.00 60 1014.0
20260510062508 21 137 0.0 0.0 0.00 0.00 0.00 60 1014.1
20260510062008 21 137 0.0 0.0 0.00 0.00 0.00 61 1014.0
20260510061508 21 117 0.0 0.0 0.00 0.00 0.00 60 1014.0
20260510061007 21 126 0.0 0.0 0.00 0.00 0.00 61 1014.0
20260510060508 21 126 0.0 0.0 0.00 0.00 0.00 61 1014.0
20260510060007 21 140 0.0 0.0 0.00 0.00 0.00 63 1014.1
20260510055508 20 140 0.0 0.0 0.00 0.00 0.00 63 1014.0
20260510055007 20 140 0.0 0.0 0.00 0.00 0.00 64 1014.0
20260510054507 20 113 0.0 0.0 0.00 0.00 0.00 65 1013.8
20260510054008 20 117 0.0 0.0 0.00 0.00 0.00 65 1013.9
20260510053508 19 117 0.0 0.0 0.00 0.00 0.00 65 1013.8
20260510053008 19 117 0.0 0.0 0.00 0.00 0.00 66 1013.7
20260510052507 19 119 0.0 0.0 0.00 0.00 0.00 67 1013.7
20260510052007 18 119 0.0 0.0 0.00 0.00 0.00 67 1013.7
20260510051507 18 119 0.0 0.0 0.00 0.00 0.00 68 1013.5
20260510051007 18 105 0.0 0.0 0.00 0.00 0.00 69 1013.5
20260510050508 18 21 0.0 0.0 0.00 0.00 0.00 70 1013.4
20260510050007 18 22 0.0 0.0 0.00 0.00 0.00 71 1013.3
20260510045508 18 284 0.0 0.0 0.00 0.00 0.00 71 1013.3
20260510045007 17 283 0.0 0.0 0.00 0.00 0.00 71 1013.4
20260510044007 17 277 0.0 0.0 0.00 0.00 0.00 72 1013.5
20260510042507 17 277 0.0 0.0 0.00 0.00 0.00 73 1013.5
20260510042007 17 276 0.0 0.0 0.00 0.00 0.00 72 1013.4
20260510041508 16 28 0.0 0.0 0.00 0.00 0.00 73 1013.4
20260510041008 16 28 0.0 0.0 0.00 0.00 0.00 73 1013.3
20260510040507 16 28 0.0 0.0 0.00 0.00 0.00 72 1013.2
20260510035508 16 28 0.0 0.0 0.00 0.00 0.00 72 1013.1
20260510035008 16 28 0.0 0.0 0.00 0.00 0.00 71 1013.1
20260510034508 16 28 0.0 0.0 0.00 0.00 0.00 70 1013.0
20260510033507 17 28 0.0 0.0 0.00 0.00 0.00 70 1012.9
20260510033008 17 28 0.0 0.0 0.00 0.00 0.00 70 1012.9
20260510032507 16 28 0.0 0.0 0.00 0.00 0.00 70 1012.8
20260510031508 16 29 0.0 0.0 0.00 0.00 0.00 71 1012.8
20260510031007 16 32 0.0 0.0 0.00 0.00 0.00 70 1012.8
20260510030507 16 349 0.0 0.0 0.00 0.00 0.00 70 1012.9
20260510030007 16 340 0.0 0.0 0.00 0.00 0.00 70 1012.9
20260510025008 16 340 0.0 0.0 0.00 0.00 0.00 69 1012.7
20260510024508 16 340 0.0 0.0 0.00 0.00 0.00 69 1012.7
20260510024008 17 340 0.0 0.0 0.00 0.00 0.00 69 1012.6
20260510023507 17 340 0.0 0.0 0.00 0.00 0.00 69 1012.6
20260510021507 17 341 0.0 0.0 0.00 0.00 0.00 69 1012.7
20260510021008 17 338 0.0 0.0 0.00 0.00 0.00 70 1012.6
20260510020508 17 338 0.0 0.0 0.00 0.00 0.00 70 1012.6
20260510020007 17 338 0.0 0.0 0.00 0.00 0.00 70 1012.6
20260510015507 17 338 0.0 0.0 0.00 0.00 0.00 69 1012.5
20260510015007 17 338 0.0 0.0 0.00 0.00 0.00 69 1012.5
20260510014507 17 338 0.0 0.0 0.00 0.00 0.00 69 1012.6
20260510014008 17 338 0.0 0.0 0.00 0.00 0.00 69 1012.6
20260510013507 17 338 0.0 0.0 0.00 0.00 0.00 68 1012.5
20260510013008 17 338 0.0 0.0 0.00 0.00 0.00 68 1012.5
20260510012507 17 338 0.0 0.0 0.00 0.00 0.00 68 1012.5
20260510012008 17 338 0.0 0.0 0.00 0.00 0.00 68 1012.5
20260510011507 17 338 0.0 0.0 0.00 0.00 0.00 68 1012.6
20260510011008 17 338 0.0 0.0 0.00 0.00 0.00 68 1012.6
20260510010508 17 338 0.0 0.0 0.00 0.00 0.00 67 1012.6
20260510010007 17 338 0.0 0.0 0.00 0.00 0.00 67 1012.6
20260510005507 17 337 0.0 0.0 0.00 0.00 0.00 66 1012.4
20260510005007 17 336 0.0 0.0 0.00 0.00 0.00 66 1012.5
20260510004007 17 336 0.0 0.0 0.00 0.00 0.00 66 1012.5
20260510003507 17 327 0.0 0.0 0.00 0.00 0.00 67 1012.5
20260510003007 17 313 0.0 0.0 0.00 0.00 0.00 67 1012.5
20260510002507 17 313 0.0 0.0 0.00 0.00 0.00 66 1012.5
20260510001508 17 130 0.0 0.0 0.00 0.00 0.00 66 1012.6
20260510000507 17 123 0.0 0.0 0.00 0.00 0.00 66 1012.5
20260509235507 17 43 0.0 0.0 0.00 0.00 0.00 66 1012.5
20260509235008 17 43 0.0 0.0 0.00 0.00 0.00 66 1012.5
20260509234507 17 43 0.0 0.0 0.00 0.00 0.00 66 1012.6
20260509234007 17 43 0.0 0.0 0.00 0.00 0.00 66 1012.7
20260509233507 17 43 0.0 0.0 0.00 0.00 0.00 67 1012.7
20260509233008 17 43 0.0 0.0 0.00 0.00 0.00 67 1012.7
20260509232007 17 43 0.0 0.0 0.00 0.00 0.00 68 1012.8
20260509231507 17 43 0.0 0.0 0.00 0.00 0.00 68 1012.8
20260509231007 17 43 0.0 0.0 0.00 0.00 0.00 69 1012.8
20260509230507 17 43 0.0 0.0 0.00 0.00 0.00 69 1012.8
20260509230008 17 43 0.0 0.0 0.00 0.00 0.00 70 1012.9
20260509225507 17 43 0.0 0.0 0.00 0.00 0.00 70 1012.9
20260509223508 17 40 0.0 0.0 0.00 0.00 0.00 69 1012.9
20260509223008 17 40 0.0 0.0 0.00 0.00 0.00 68 1013.0
20260509222507 17 40 0.0 0.0 0.00 0.00 0.00 68 1013.1
20260509222007 17 40 0.0 0.0 0.00 0.00 0.00 68 1013.1
20260509221507 17 40 0.0 0.0 0.00 0.00 0.00 68 1013.1
20260509221007 17 37 0.0 0.0 0.00 0.00 0.00 67 1013.1
20260509220507 17 34 0.0 0.0 0.00 0.00 0.00 67 1013.1
20260509220007 17 46 0.0 0.0 0.00 0.00 0.00 67 1013.1
20260509215510 17 46 0.0 0.0 0.00 0.00 0.00 66 1013.1
20260509215007 17 46 0.0 0.0 0.00 0.00 0.00 66 1013.0
20260509214507 17 46 0.0 0.0 0.00 0.00 0.00 66 1013.0
20260509214008 18 44 0.0 0.0 0.00 0.00 0.00 67 1013.0
20260509213507 17 356 0.0 0.0 0.00 0.00 0.00 69 1013.0
20260509213007 17 5 0.0 0.0 0.00 0.00 0.00 69 1013.0
20260509212507 17 257 0.0 0.0 0.00 0.00 0.00 69 1013.0
20260509212008 17 274 0.0 0.0 0.00 0.00 0.00 68 1013.0
20260509211507 17 253 0.0 0.0 0.00 0.00 0.00 68 1013.0
20260509211007 17 21 0.0 0.0 0.00 0.00 0.00 68 1013.1
20260509210507 17 21 0.0 0.0 0.00 0.00 0.00 68 1013.0
20260509210007 17 5 0.0 0.0 0.00 0.00 0.00 68 1013.0
20260509205507 17 38 0.0 0.0 0.00 0.00 0.00 67 1012.9
20260509205008 17 41 0.0 0.0 0.00 0.00 0.00 67 1012.9
20260509204507 17 41 0.0 0.0 0.00 0.00 0.00 67 1012.9
20260509204007 17 41 0.0 0.0 0.00 0.00 0.00 66 1013.0
20260509203507 17 41 0.0 0.0 0.00 0.00 0.00 66 1012.9
20260509203007 17 41 0.0 0.0 0.00 0.00 0.00 66 1013.0
20260509202507 17 41 0.0 0.0 0.00 0.00 0.00 66 1012.9
20260509202007 17 41 0.0 0.0 0.00 0.00 0.00 66 1012.9
20260509201507 18 41 0.0 0.0 0.00 0.00 0.00 66 1012.9
20260509201007 17 41 0.0 0.0 0.00 0.00 0.00 67 1012.9
20260509200507 17 42 0.0 0.0 0.00 0.00 0.00 67 1012.9
20260509200007 17 42 0.0 0.0 0.00 0.00 0.00 66 1012.9
20260509195507 17 42 0.0 0.0 0.00 0.00 0.00 66 1012.8
20260509195007 18 42 0.0 0.0 0.00 0.00 0.00 66 1012.8
20260509194507 18 42 0.0 0.0 0.00 0.00 0.00 66 1012.8
20260509194007 18 42 0.0 0.0 0.00 0.00 0.00 66 1012.7
20260509193507 18 42 0.0 0.0 0.00 0.00 0.00 66 1012.8
20260509193007 18 42 0.0 0.0 0.00 0.00 0.00 66 1012.7
20260509192507 18 42 0.0 0.0 0.00 0.00 0.00 67 1012.7
20260509191507 18 42 0.0 0.0 0.00 0.00 0.00 68 1012.8
20260509191007 18 42 0.0 0.0 0.00 0.00 0.00 67 1012.8
20260509190507 18 43 0.0 0.0 0.00 0.00 0.00 67 1012.7
20260509190007 18 45 0.0 0.0 0.00 0.00 0.00 67 1012.7
20260509185507 18 45 0.0 0.0 0.00 0.00 0.00 67 1012.8
20260509185007 18 45 0.0 0.0 0.00 0.00 0.00 66 1012.7
20260509184507 18 0 0.0 0.0 0.00 0.00 0.00 66 1012.6
20260509184007 18 0 0.0 0.0 0.00 0.00 0.00 66 1012.5
20260509183507 18 355 0.0 0.0 0.00 0.00 0.00 66 1012.4
20260509183007 18 351 0.0 0.0 0.00 0.00 0.00 66 1012.4
20260509182507 18 249 0.0 0.0 0.00 0.00 0.00 65 1012.3
20260509182007 18 252 0.0 0.0 0.00 0.00 0.00 65 1012.3
20260509181507 18 255 0.0 0.0 0.00 0.00 0.00 65 1012.2
20260509180507 18 275 0.0 0.0 0.00 0.00 0.00 64 1012.1
20260509180007 18 268 0.0 0.0 0.00 0.00 0.00 63 1012.0
20260509175007 19 263 0.0 0.0 0.00 0.00 0.00 62 1011.9
20260509174507 19 271 0.0 0.0 0.00 0.00 0.00 61 1011.9
20260509173507 20 269 0.0 0.0 0.00 0.00 0.00 59 1011.8
20260509173008 20 264 0.0 0.0 0.00 0.00 0.00 59 1011.8
20260509172507 20 266 0.0 0.0 0.00 0.00 0.00 57 1011.7
20260509170507 20 258 0.0 0.0 0.00 0.00 0.00 54 1011.6
20260509170008 20 231 0.0 0.0 0.00 0.00 0.00 54 1011.7
20260509165007 21 227 0.0 0.0 0.00 0.00 0.00 52 1011.7
20260509164507 21 230 0.0 0.0 0.00 0.00 0.00 52 1011.6
20260509163507 21 227 0.0 0.0 0.00 0.00 0.00 50 1011.7
20260509163008 21 230 0.0 0.0 0.00 0.00 0.00 49 1011.6
20260509162507 21 227 0.0 0.0 0.00 0.00 0.00 48 1011.6
20260509162007 21 222 0.0 0.0 0.00 0.00 0.00 47 1011.6
20260509161507 21 223 0.0 0.0 0.00 0.00 0.00 47 1011.5
20260509161007 21 244 0.0 0.0 0.00 0.00 0.00 48 1011.5
20260509160507 21 213 0.0 0.0 0.00 0.00 0.00 48 1011.5
20260509160007 21 233 0.0 0.0 0.00 0.00 0.00 47 1011.4
20260509155007 22 238 0.0 0.0 0.00 0.00 0.00 46 1011.4
20260509154507 22 219 0.0 0.0 0.00 0.00 0.00 46 1011.4
20260509153507 22 210 0.0 0.0 0.00 0.00 0.00 45 1011.5
20260509153007 22 223 0.0 0.0 0.00 0.00 0.00 45 1011.5
20260509152007 22 217 0.0 0.0 0.00 0.00 0.00 43 1011.4
20260509151507 22 202 0.0 0.0 0.00 0.00 0.00 42 1011.4
20260509151007 22 204 0.0 0.0 0.00 0.00 0.00 42 1011.5
20260509150007 22 193 0.0 0.0 0.00 0.00 0.00 40 1011.4
20260509145507 22 199 0.0 0.0 0.00 0.00 0.00 40 1011.5
20260509145007 22 192 0.0 0.0 0.00 0.00 0.00 40 1011.6
20260509144507 22 197 0.0 0.0 0.00 0.00 0.00 38 1011.6
20260509144007 23 203 0.0 0.0 0.00 0.00 0.00 37 1011.6
20260509143507 23 202 0.0 0.0 0.00 0.00 0.00 37 1011.6
20260509143007 23 201 0.0 0.0 0.00 0.00 0.00 36 1011.6
20260509142507 23 201 0.0 0.0 0.00 0.00 0.00 35 1011.6
20260509142007 23 196 0.0 0.0 0.00 0.00 0.00 35 1011.7
20260509141507 23 187 0.0 0.0 0.00 0.00 0.00 35 1011.7
20260509141007 23 203 0.0 0.0 0.00 0.00 0.00 34 1011.7
20260509140507 23 214 0.0 0.0 0.00 0.00 0.00 35 1011.8
20260509140007 23 214 0.0 0.0 0.00 0.00 0.00 33 1011.8
20260509135507 23 202 0.0 0.0 0.00 0.00 0.00 35 1011.7
20260509135007 23 180 0.0 0.0 0.00 0.00 0.00 34 1011.8
20260509134507 23 217 0.0 0.0 0.00 0.00 0.00 36 1011.7
20260509133507 23 187 0.0 0.0 0.00 0.00 0.00 34 1011.8
20260509133007 23 197 0.0 0.0 0.00 0.00 0.00 35 1011.8
20260509132507 23 187 0.0 0.0 0.00 0.00 0.00 35 1011.8
20260509132007 23 163 0.0 0.0 0.00 0.00 0.00 36 1011.9
20260509131007 23 195 0.0 0.0 0.00 0.00 0.00 36 1011.9
20260509130507 23 206 0.0 0.0 0.00 0.00 0.00 37 1012.0
20260509130006 23 188 0.0 0.0 0.00 0.00 0.00 37 1012.0
20260509125007 23 186 0.0 0.0 0.00 0.00 0.00 38 1012.1
20260509124507 23 184 0.0 0.0 0.00 0.00 0.00 38 1012.2
20260509124007 23 168 0.0 0.0 0.00 0.00 0.00 38 1012.2
20260509123507 24 172 0.0 0.0 0.00 0.00 0.00 38 1012.4
20260509122507 23 198 0.0 0.0 0.00 0.00 0.00 39 1012.3
20260509121507 23 216 0.0 0.0 0.00 0.00 0.00 39 1012.5
20260509121007 23 209 0.0 0.0 0.00 0.00 0.00 39 1012.5
20260509120507 23 192 0.0 0.0 0.00 0.00 0.00 39 1012.4
20260509120007 23 199 0.0 0.0 0.00 0.00 0.00 39 1012.5
20260509115507 23 209 0.0 0.0 0.00 0.00 0.00 41 1012.4
20260509115007 23 204 0.0 0.0 0.00 0.00 0.00 41 1012.4
20260509114507 23 197 0.0 0.0 0.00 0.00 0.00 40 1012.5
20260509114007 23 200 0.0 0.0 0.00 0.00 0.00 40 1012.5
20260509113507 23 189 0.0 0.0 0.00 0.00 0.00 42 1012.5
20260509113007 23 200 0.0 0.0 0.00 0.00 0.00 42 1012.5
20260509112507 23 197 0.0 0.0 0.00 0.00 0.00 41 1012.5
20260509112007 23 203 0.0 0.0 0.00 0.00 0.00 41 1012.6
20260509111507 23 173 0.0 0.0 0.00 0.00 0.00 42 1012.7
20260509111007 23 182 0.0 0.0 0.00 0.00 0.00 41 1012.6
20260509110507 23 192 0.0 0.0 0.00 0.00 0.00 43 1012.5
20260509105507 23 192 0.0 0.0 0.00 0.00 0.00 43 1012.6
20260509105007 23 202 0.0 0.0 0.00 0.00 0.00 43 1012.7
20260509104007 23 176 0.0 0.0 0.00 0.00 0.00 41 1012.5
20260509103507 23 194 0.0 0.0 0.00 0.00 0.00 41 1012.5
20260509103008 23 190 0.0 0.0 0.00 0.00 0.00 39 1012.6
20260509102507 23 188 0.0 0.0 0.00 0.00 0.00 40 1012.7
20260509102008 23 182 0.0 0.0 0.00 0.00 0.00 39 1012.7
20260509101007 23 194 0.0 0.0 0.00 0.00 0.00 37 1012.8
20260509100007 23 179 0.0 0.0 0.00 0.00 0.00 35 1013.0
20260509095507 24 189 0.0 0.0 0.00 0.00 0.00 37 1013.0
20260509095007 24 214 0.0 0.0 0.00 0.00 0.00 35 1013.2
20260509094506 23 204 0.0 0.0 0.00 0.00 0.00 37 1013.2
20260509093507 23 187 0.0 0.0 0.00 0.00 0.00 36 1013.3
20260509093007 23 172 0.0 0.0 0.00 0.00 0.00 38 1013.2
20260509092507 24 169 0.0 0.0 0.00 0.00 0.00 37 1013.2
20260509092007 24 177 0.0 0.0 0.00 0.00 0.00 35 1013.2